Location: Newark
(35.9031°N, 139.7175°E)
Time: 08:02:10
(UTC+00:00)

Transit 4A - Visible Passes

Search period start: 26 May 2020 00:00
Search period end: 05 June 2020 00:00
Orbit: 869 x 976 km, 66.8° (Epoch: 23 May)

Date Brightness Start Highest point End Pass type
(mag) Time Alt. Az. Time Alt. Az. Time Alt. Az.
26 May 7.7 16:56:44 58° SSW 16:57:58 88° ESE 17:03:52 10° NNE visible
26 May 9.8 18:41:54 10° W 18:45:07 15° NW 18:48:21 10° NNW visible
27 May 9.8 15:22:22 16° E 15:22:22 16° E 15:25:09 10° ENE visible
27 May 7.9 17:05:52 47° WSW 17:07:18 61° WNW 17:13:08 10° NNE visible
28 May 9.2 15:31:28 26° E 15:31:28 26° E 15:35:27 10° NE visible
28 May 8.5 17:14:58 32° W 17:16:44 40° WNW 17:22:15 10° NNE visible
29 May 8.6 15:40:31 40° E 15:40:31 40° E 15:45:16 10° NE visible
29 May 9.1 17:24:01 22° W 17:26:15 27° NW 17:31:13 10° N visible
30 May 8.0 15:49:31 63° E 15:49:31 63° E 15:54:50 10° NNE visible
30 May 9.6 17:33:01 14° W 17:35:52 19° NW 17:39:57 10° N visible
31 May 7.7 15:58:29 79° NNW 15:58:29 79° NNW 16:04:11 10° NNE visible
31 May 9.9 17:42:59 10° WNW 17:45:35 13° NW 17:48:13 10° NNW visible
01 Jun 9.8 14:23:56 16° ENE 14:23:56 16° ENE 14:25:55 10° ENE visible
01 Jun 8.1 16:07:25 52° WNW 16:07:39 52° WNW 16:13:24 10° NNE visible
02 Jun 9.3 14:32:49 26° ENE 14:32:49 26° ENE 14:36:00 10° NE visible
02 Jun 8.7 16:16:18 33° WNW 16:17:06 35° NW 16:22:28 10° N visible
03 Jun 8.7 14:41:40 39° ENE 14:41:40 39° ENE 14:45:42 10° NE visible
03 Jun 9.3 16:25:09 22° WNW 16:26:39 24° NW 16:31:21 10° N visible
04 Jun 8.2 14:50:28 58° NE 14:50:28 58° NE 14:55:11 10° NNE visible
04 Jun 9.8 16:33:57 13° WNW 16:36:18 17° NW 16:39:58 10° N visible
